Weather History for Crossville, TN

Change the Weather History Date:

Saturday, February 2, 2013

  Actual Average Record
Temperature  
Mean Temperature 28 °F 37 °F  
Max Temperature 36 °F 46 °F 70 °F (1989)
Min Temperature 19 °F 28 °F -6 °F (1965)
Degree Days  
Heating Degree Days 38    
Month to date heating degree days 42  
Since 1 July heating degree days 2432  
Cooling Degree Days 0    
Month to date cooling degree days 0  
Year to date cooling degree days 0  
Moisture  
Dew Point 24 °F    
Average Humidity 78    
Maximum Humidity 88    
Minimum Humidity 67    
Precipitation  
Precipitation 0.09 in 0.16 in 1.22 in (1956)
Month to date precipitation 0.10 0.32  
Year to date precipitation 7.23 5.08  
Sea Level Pressure  
Sea Level Pressure 30.17 in    
Wind  
Wind Speed 3 mph (SW)    
Max Wind Speed 9 mph    
Max Gust Speed 17 mph    
Visibility 6 miles    
Events Fog , Snow    
T = Trace of Precipitation, MM = Missing Value Source: NWS Daily Summary

Daily Weather History Graph

Daily Weather History Graph

Search for Another Location

Airport:

Trip Planner

Search our weather history database for the weather conditions in past years. The results will help you decide how hot, cold, wet, or windy it might be!

Date:

Astronomy

Feb. 02, 2013 Rise Set
Actual Time 6:39 AM CST 5:08 PM CST
Civil Twilight 6:13 AM CST 5:35 PM CST
Nautical Twilight 5:42 AM CST 6:06 PM CST
Astronomical Twilight 5:12 AM CST 6:36 PM CST
Moon No Moon Rise 10:04 AM CST (2/2)
Length of Visible Light 11h 22m
Length of Day
10h 28m
Waning Gibbous, 59% of the Moon is Illuminated
Feb 2
Waning Gibbous
Feb 3
Last Quarter
Feb 10
New
Feb 17
First Quarter
Feb 25
Full

Hourly Weather History & Observations

Time (CST) Temp. Windchill Dew Point Humidity Pressure Visibility Wind Dir Wind Speed Gust Speed Precip Events Conditions
12:53 AM 21.0 °F - 14.0 °F 74% 30.32 in 10.0 mi Calm Calm - N/A   Clear
1:53 AM 19.9 °F - 12.9 °F 74% 30.31 in 10.0 mi Calm Calm - N/A   Clear
2:53 AM 19.9 °F - 12.0 °F 71% 30.31 in 10.0 mi Calm Calm - N/A   Clear
3:53 AM 19.9 °F - 10.9 °F 68% 30.30 in 10.0 mi Calm Calm - N/A   Clear
4:53 AM 19.0 °F - 12.0 °F 74% 30.30 in 10.0 mi Calm Calm - N/A   Clear
5:53 AM 19.9 °F - 12.9 °F 74% 30.30 in 10.0 mi Calm Calm - N/A   Overcast
6:53 AM 21.9 °F 17.2 °F 14.0 °F 72% 30.27 in 10.0 mi SSE 3.5 mph - N/A   Overcast
7:50 AM 24.8 °F 16.9 °F 15.8 °F 69% 30.26 in 2.0 mi Variable 6.9 mph - 0.00 in Snow Light Snow
7:53 AM 24.1 °F 16.0 °F 16.0 °F 71% 30.33 in 1.0 mi SW 6.9 mph - 0.00 in Snow Light Snow
8:06 AM 24.8 °F 16.9 °F 17.6 °F 74% 30.25 in 0.5 mi SSW 6.9 mph - 0.01 in Snow Snow
8:14 AM 23.0 °F 17.0 °F 19.4 °F 86% 30.24 in 0.2 mi South 4.6 mph - 0.01 in Fog , Snow Snow
8:30 AM 23.0 °F - 21.2 °F 93% 30.24 in 0.2 mi North - - 0.03 in Fog , Snow Heavy Snow
8:53 AM 24.1 °F 18.2 °F 21.9 °F 91% 30.30 in 0.2 mi SSW 4.6 mph - 0.06 in Fog , Snow Snow
9:02 AM 24.8 °F 17.9 °F 21.2 °F 86% 30.22 in 0.8 mi SSW 5.8 mph - 0.01 in Snow Light Snow
9:10 AM 24.8 °F 19.1 °F 21.2 °F 86% 30.23 in 0.5 mi SSW 4.6 mph - 0.02 in Fog , Snow Snow
9:27 AM 24.8 °F 19.1 °F 21.2 °F 86% 30.22 in 0.8 mi Variable 4.6 mph - 0.02 in Snow Light Snow
9:31 AM 24.8 °F 17.9 °F 21.2 °F 86% 30.21 in 1.2 mi Variable 5.8 mph - 0.02 in Snow Light Snow
9:48 AM 24.8 °F 16.9 °F 21.2 °F 86% 30.21 in 0.8 mi Variable 6.9 mph 17.3 mph 0.02 in Snow Light Snow
9:49 AM 25.0 °F 18.1 °F 21.9 °F 88% 30.27 in 0.8 mi SSW 5.8 mph 17.3 mph 0.03 in Snow Light Snow
10:01 AM 26.6 °F 19.1 °F 21.2 °F 80% 30.20 in 2.0 mi South 6.9 mph - 0.00 in Snow Light Snow
10:09 AM 26.6 °F 20.0 °F 21.2 °F 80% 30.19 in 7.0 mi Variable 5.8 mph - 0.00 in   Overcast
10:29 AM 26.6 °F 18.2 °F 23.0 °F 86% 30.18 in 1.8 mi South 8.1 mph - 0.00 in Snow Light Snow
10:41 AM 26.6 °F 19.1 °F 24.8 °F 93% 30.17 in 2.0 mi Variable 6.9 mph - 0.00 in Snow Light Snow
10:50 AM 26.6 °F 19.1 °F 23.0 °F 86% 30.17 in 6.0 mi South 6.9 mph - 0.00 in Snow Light Snow
10:53 AM 27.0 °F 18.0 °F 23.0 °F 85% 30.23 in 6.0 mi South 9.2 mph - 0.00 in Snow Light Snow
11:53 AM 28.9 °F 19.8 °F 25.0 °F 85% 30.18 in 10.0 mi South 10.4 mph 17.3 mph 0.00 in   Overcast
12:53 PM 30.9 °F 23.5 °F 26.1 °F 82% 30.14 in 10.0 mi SSW 8.1 mph - N/A   Overcast
1:53 PM 34.0 °F 29.8 °F 28.0 °F 79% 30.11 in 10.0 mi Variable 4.6 mph - N/A   Scattered Clouds
2:53 PM 36.0 °F 30.3 °F 28.9 °F 76% 30.10 in 10.0 mi WSW 6.9 mph - N/A   Mostly Cloudy
3:17 PM 35.6 °F 29.9 °F 28.4 °F 75% 30.05 in 1.8 mi West 6.9 mph - 0.00 in Snow Light Snow
3:24 PM 33.8 °F 27.7 °F 30.2 °F 87% 30.05 in 0.5 mi West 6.9 mph - 0.01 in Fog , Snow Snow
3:34 PM 33.8 °F 29.6 °F 30.2 °F 87% 30.05 in 0.5 mi West 4.6 mph - 0.01 in Fog , Snow Light Snow
3:38 PM 33.8 °F 27.7 °F 30.2 °F 87% 30.04 in 1.0 mi West 6.9 mph - 0.02 in Snow Light Snow
3:46 PM 33.8 °F 29.6 °F 30.2 °F 87% 30.05 in 3.0 mi Variable 4.6 mph - 0.02 in Snow Light Snow
3:49 PM 33.8 °F 29.6 °F 30.2 °F 87% 30.05 in 2.5 mi Variable 4.6 mph - 0.02 in Snow Light Snow
3:53 PM 33.1 °F 27.7 °F 30.9 °F 92% 30.10 in 1.5 mi WSW 5.8 mph - 0.02 in Snow Light Snow
4:00 PM 33.8 °F 29.6 °F 30.2 °F 87% 30.04 in 2.5 mi Variable 4.6 mph - 0.00 in Snow Light Snow
4:07 PM 33.8 °F 29.6 °F 30.2 °F 87% 30.05 in 9.0 mi WSW 4.6 mph - 0.00 in   Overcast
4:51 PM 33.8 °F - 30.2 °F 87% 30.03 in 10.0 mi Calm Calm - 0.00 in   Overcast
4:53 PM 34.0 °F - 30.9 °F 89% 30.08 in 10.0 mi Calm Calm - 0.00 in   Overcast
5:53 PM 34.0 °F - 30.9 °F 89% 30.09 in 6.0 mi Calm Calm - 0.00 in Snow Light Snow
6:53 PM 33.1 °F - 30.0 °F 89% 30.10 in 10.0 mi Calm Calm - 0.00 in   Overcast
7:53 PM 33.1 °F - 30.0 °F 89% 30.11 in 10.0 mi Calm Calm - N/A   Overcast
8:50 PM 33.8 °F 25.3 °F 30.2 °F 87% 30.07 in 10.0 mi West 11.5 mph 17.3 mph N/A   Overcast
8:53 PM 34.0 °F 26.0 °F 30.0 °F 85% 30.12 in 10.0 mi West 10.4 mph 17.3 mph N/A   Overcast
9:17 PM 33.8 °F 24.8 °F 30.2 °F 87% 30.08 in 10.0 mi West 12.7 mph 24.2 mph N/A   Overcast
9:39 PM 32.0 °F 23.6 °F 28.4 °F 87% 30.08 in 10.0 mi WNW 10.4 mph 17.3 mph N/A   Overcast
9:53 PM 32.0 °F 24.2 °F 28.0 °F 85% 30.12 in 10.0 mi WNW 9.2 mph - N/A   Overcast
10:53 PM 32.0 °F 24.8 °F 28.0 °F 85% 30.12 in 10.0 mi West 8.1 mph - N/A   Overcast
11:53 PM 30.9 °F 23.5 °F 28.0 °F 89% 30.11 in 10.0 mi West 8.1 mph - N/A   Mostly Cloudy